Printer-friendly version

IAU Minor Planet Center

Minor Planet Center

MPEC 2005-U105: 2005 UF7

The following Minor Planet Electronic Circular may be linked-to from your own Web pages, but must not otherwise be redistributed electronically.


Read MPEC 2005-U104 Read MPEC 2005-V01


M.P.E.C. 2005-U105                               Issued 2005 Oct. 31, 23:06 UT

     The Minor Planet Electronic Circulars contain information on unusual
         minor planets and routine data on comets.  They are published
   on behalf of Commission 20 of the International Astronomical Union by the
          Minor Planet Center, Smithsonian Astrophysical Observatory,
                          Cambridge, MA 02138, U.S.A.

                  Supported in part by the Brinson Foundation
                  Supported in part by the TABASGO Foundation
             Prepared using the Tamkin Foundation Computer Network

                              MPC@CFA.HARVARD.EDU
          URL http://cfa-www.harvard.edu/iau/mpc.html  ISSN 1523-6714

                                   2005 UF7

Observations:
     K05U07F* C2005 10 29.27546 01 28 21.61 +06 57 19.5          19.7 V EU105G96
     K05U07F  C2005 10 29.28174 01 28 28.23 +06 57 47.7          20.7 V EU105G96
     K05U07F  C2005 10 29.28789 01 28 34.82 +06 58 15.6          21.0 V EU105G96
     K05U07F  C2005 10 29.29433 01 28 41.73 +06 58 44.7          20.0 V EU105G96
     K05U07F  C2005 10 29.33329 01 29 23.25 +07 01 40.5                 EU105G96
     K05U07F  C2005 10 29.33366 01 29 23.80 +07 01 41.7                 EU105G96
     K05U07F  C2005 10 29.33403 01 29 24.20 +07 01 43.1          19.9 V EU105G96
     K05U07F  C2005 10 29.33439 01 29 24.58 +07 01 44.9          20.0 V EU105G96
     K05U07F  C2005 10 29.41128 01 30 48.45 +07 07 28.8          21.8 V EU105G96
     K05U07F  C2005 10 29.41282 01 30 50.14 +07 07 35.5          21.0 V EU105G96
     K05U07F  C2005 10 29.41446 01 30 51.94 +07 07 42.8          19.9 V EU105G96
     K05U07F  C2005 10 30.30587 01 48 55.00 +08 17 25.1          20.0 V EU105G96
     K05U07F  C2005 10 30.31387 01 49 04.58 +08 18 03.3                 EU105G96
     K05U07F  C2005 10 30.32184 01 49 14.08 +08 18 41.5                 EU105G96
     K05U07F  C2005 10 30.32981 01 49 23.80 +08 19 19.9                 EU105G96
     K05U07F  C2005 10 31.26133 02 09 54.35 +09 34 23.2          20.0 V EU105G96
     K05U07F  C2005 10 31.26504 02 09 59.16 +09 34 41.4                 EU105G96
     K05U07F  C2005 10 31.26873 02 10 03.92 +09 35 00.0                 EU105G96
     K05U07F  C2005 10 31.27244 02 10 08.69 +09 35 17.6                 EU105G96

Observer details:
G96 Mt. Lemmon Survey.  Observers E. J. Christensen, S. M. Larson,
    R. A. Kowalski.  Measurers E. C. Beshore, E. J. Christensen, G. J. Garradd,
    A. D. Grauer, R. E. Hill, R. A. Kowalski, S. M. Larson, R. H. McNaught.
    1.5-m reflector, 1.5-m reflector + CCD.

Orbital elements:
2005 UF7
Epoch 2005 Aug. 18.0 TT = JDT 2453600.5                 MPC
M 338.73125              (2000.0)            P               Q
n   0.25764975     Peri.  197.56772     +0.67502205     -0.73775450
a   2.4459612      Node   209.97790     +0.67881670     +0.62525559
e   0.5808288      Incl.    0.91395     +0.28905556     +0.25450687
P   3.83           H   26.5           G   0.15           U   7
Residuals in seconds of arc
051029 G96  0.1+  0.1+    051029 G96  0.0   0.1-    051030 G96 (4.2+  1.7+)
051029 G96  0.7-  0.1-    051029 G96  0.2+  0.1-    051031 G96  0.6-  0.3-
051029 G96  0.0   0.0     051029 G96  0.0   0.3-    051031 G96  0.1+  0.3-
051029 G96  0.7+  0.1+    051029 G96  0.3-  0.3-    051031 G96  0.3+  0.2+
051029 G96 (2.2-  0.5+)   051030 G96 (2.3-  0.2+)   051031 G96  0.4+  0.3-
051029 G96  0.1+  0.0     051030 G96  0.6-  0.5+
051029 G96  0.1+  0.2-    051030 G96  0.3+  1.0+

Ephemeris:
2005 UF7                 a,e,i = 2.45, 0.58, 1                   q = 1.0253
Date    TT    R. A. (2000) Decl.     Delta      r     Elong.  Phase     V
2005 10 27    00 50.23   +04 21.4    0.0469   1.038   159.6    19.5    20.9
2005 10 29    01 23.21   +06 38.2    0.0421   1.034   166.0    13.5    20.5
2005 10 31    02 03.97   +09 14.6    0.0386   1.031   173.7     6.1    20.0
2005 11 02    02 51.71   +11 54.0    0.0366   1.029   173.8     6.0    19.9
2005 11 04    03 43.07   +14 10.0    0.0365   1.027   163.9    15.5    20.2
2005 11 06    04 32.92   +15 42.0    0.0382   1.026   154.0    25.1    20.6
2005 11 08    05 16.91   +16 28.3    0.0415   1.025   145.4    33.2    21.0
2005 11 10    05 53.22   +16 41.3    0.0460   1.025   138.8    39.5    21.4
2005 11 12    06 22.15   +16 35.4    0.0514   1.026   133.9    44.0    21.8
2005 11 14    06 44.91   +16 20.9    0.0574   1.028   130.5    47.1    22.1
2005 11 16    07 02.82   +16 03.6    0.0639   1.030   128.2    49.0    22.4

Kyle E. Smalley              (C) Copyright 2005 MPC           M.P.E.C. 2005-U105

Read MPEC 2005-U104 Read MPEC 2005-V01


Our Web policy. Index to the CBAT/MPC/ICQ pages.


Valid HTML 4.01!